Regional Weather Roundup
Issued by NWS Sioux Falls, SD

Home | Current Version | Previous Version | Graphics & Text | Print | Product List | Glossary On
Versions: 1 2 3 4 5 6 7 8 9 10 11 12 13 14 15 16 17 18 19 20 21 22 23 24 25 26 27 28 29 30 31 32 33 34 35 36 37 38 39 40 41 42 43 44 45 46 47 48 49 50
000
ASUS43 KFSD 191002
RWRFSD

WEATHER ROUNDUP FOR SE SOUTH DAKOTA/SW MINNESOTA/NW IOWA
NATIONAL WEATHER SERVICE SIOUX FALLS SD
400 AM CST MON FEB 19 2018

NOTE: "FAIR" INDICATES FEW OR NO CLOUDS BELOW 12,000 FEET WITH NO
SIGNIFICANT WEATHER AND OR OBSTRUCTIONS TO VISIBILITY.


SDZ038>040-050-052>070-191100-
SOUTHEAST SOUTH DAKOTA

CITY           SKY/WX    TMP DP  RH WIND       PRES   REMARKS
BROOKINGS      FLURRIES  12   7  80 N24       29.86R WCI  -8
CHAMBERLAIN    CLOUDY    12   7  80 NW18G29   29.97R WCI  -6
HURON          CLOUDY    11   6  81 N23G30    29.96F WCI  -9
MADISON        CLOUDY    14  14 100 NE17G26   29.86R WCI  -3
MITCHELL       CLOUDY    14   9  80 N23       29.94R WCI  -5
SIOUX FALLS    CLOUDY    16  11  80 N20G29    29.84S WCI  -1
WINNER         FLURRIES  11   6  81 N16G23    29.96R WCI  -6
YANKTON        MIX PCPN  18  15  88 NW23      29.84S FOG     WCI   0
$$

MNZ071-072-080-081-089-090-097-098-191100-
SOUTHWEST MINNESOTA

CITY           SKY/WX    TMP DP  RH WIND       PRES   REMARKS
FAIRMONT       CLOUDY    24  21  88 N18       29.78R WCI  10
JACKSON        CLOUDY    21  19  93 VRB18G28  29.78R WCI   6
LUVERNE        CLOUDY    18  10  73 N16G26    29.81F WCI   3
MARSHALL       FLURRIES  15  11  83 N16       29.91R WCI  -1
MONTEVIDEO     MOCLDY    16  10  79 NE17      29.91R WCI   0
PIPESTONE      CLOUDY    12   9  85 NE16G24   29.83R WCI  -4
REDWOOD FALLS  CLOUDY    18  11  74 N12G23    29.85R WCI   5
TRACY          CLOUDY    17  14  87 N16       29.88R WCI   2
WINDOM         CLOUDY    19   7  58 N23       29.81R WCI   2
WORTHINGTON    CLOUDY    16  13  88 N24G32    29.78R WCI  -2
$$

IAZ001>003-012>014-020>022-031-032-NEZ013-014-SDZ071-191100-
NORTHWEST IOWA

CITY           SKY/WX    TMP DP  RH WIND       PRES   REMARKS
CHEROKEE       LGT SNOW  24  23  95 N14       29.73F WCI  12
DENISON        MIX PCPN  30  30 100 NE15G24   29.68R WCI  19
ESTHERVILLE    CLOUDY    21  19  92 N23       29.74F WCI   5
LE MARS        CLOUDY    21  19  93 N24       29.77R FOG     WCI   4
ORANGE CITY    MIX PCPN  21  19  93 N16G22    29.77R WCI   7
SHELDON        CLOUDY    19  18  93 N29       29.75F WCI   1
SIOUX CITY     FRZ RAIN  23  21  92 N20       29.76S FOG     WCI   8
SPENCER        CLOUDY    23  19  85 N20       29.74F WCI   8
STORM LAKE     LGT SNOW  25  23  93 N26G32    29.69S WCI   9
$$

ABBREVIATIONS USED IN REMARKS
   TC - TEMPERATURE IN CELSIUS
  WCI - WIND CHILL INDEX
   HX - HEAT INDEX
  VSB - VISIBILITY





USA.gov is the U.S. government's official web portal to all federal, state and local government web resources and services.